FW2284 Weather Reports


Display with metric or nautical units.
time (UTC)temp
F
wind
direction
speed
MPH
gust
MPH
rain 1hr
in
rain 24hr
in
rain mn
in
humidity
%
barometer
mb
20260505230034 45 315 0.0 5.0 0.01 0.33 0.33 93 1010.3
20260505224532 45 34 1.0 6.0 0.01 0.33 0.33 93 1010.2
20260505223034 46 355 0.0 6.0 0.01 0.33 0.33 92 1009.7
20260505221531 46 41 2.0 6.0 0.00 0.32 0.32 92 1009.7
20260505220046 46 316 0.0 6.0 0.00 0.32 0.32 92 1009.6
20260505214533 46 7 1.0 7.0 0.01 0.32 0.32 92 1009.7
20260505213032 46 10 1.0 5.0 0.01 0.32 0.32 91 1010.2
20260505211534 46 302 2.0 5.0 0.01 0.32 0.32 92 1009.9
20260505210026 45 355 0.0 6.0 0.01 0.32 0.32 93 1010.2
20260505204526 45 338 2.0 6.0 0.03 0.31 0.31 93 1010.3
20260505203024 45 339 2.0 5.0 0.05 0.31 0.31 92 1010.3
20260505201523 45 49 0.0 9.0 0.05 0.31 0.31 92 1010.1
20260505200024 45 25 1.0 10.0 0.05 0.31 0.31 91 1010.2
20260505194523 45 46 3.0 10.0 0.02 0.28 0.28 89 1010.6
20260505193031 46 335 1.0 4.0 0.00 0.26 0.26 90 1010.9
20260505191522 46 4 4.0 9.0 0.02 0.26 0.26 89 1011.3
20260505190015 46 22 3.0 12.0 0.04 0.26 0.26 88 1010.7
20260505184514 47 30 4.0 14.0 0.06 0.26 0.26 87 1010.3
20260505183016 47 328 2.0 7.0 0.06 0.26 0.26 88 1010.1
20260505181508 47 326 2.0 9.0 0.04 0.24 0.24 85 1010.5
20260505180005 49 30 3.0 13.0 0.02 0.22 0.22 80 1010.5
20260505174503 50 327 3.0 8.0 0.00 0.20 0.20 77 1010.7
20260505173002 51 319 3.0 8.0 0.00 0.20 0.20 77 1011.1
20260505171601 51 311 2.0 6.0 0.00 0.20 0.20 79 1011.1
20260505170100 51 358 0.0 3.0 0.00 0.20 0.20 79 1010.8
20260505164603 51 20 0.0 4.0 0.00 0.22 0.20 79 1010.6
20260505163057 52 340 2.0 5.0 0.00 0.22 0.20 77 1010.2
20260505161558 53 359 0.0 5.0 0.00 0.22 0.20 73 1009.8
20260505153108 55 333 3.0 8.0 0.00 0.30 0.20 65 1009.4
20260505151553 55 25 2.0 7.0 0.00 0.30 0.20 69 1009.6
20260505124550 49 81 2.0 9.0 0.10 0.30 0.20 91 1008.1
20260505123046 49 69 0.0 10.0 0.12 0.28 0.19 91 1008.6
20260505121540 49 27 1.0 6.0 0.10 0.25 0.15 91 1009.6
20260505120048 50 328 3.0 8.0 0.12 0.22 0.12 91 1009.7
20260505114533 50 342 3.0 8.0 0.09 0.19 0.09 89 1008.6
20260505113023 50 5 4.0 11.0 0.07 0.17 0.07 89 1009.2
20260505111520 51 11 1.0 6.0 0.05 0.15 0.05 84 1008.5
20260505101506 55 35 3.0 16.0 0.00 0.10 0.00 77 1007.3
20260505100006 56 27 4.0 14.0 0.00 0.10 0.00 76 1007.0
20260505094600 57 60 1.0 12.0 0.00 0.10 0.00 80 1006.8
20260505093104 58 326 3.0 10.0 0.00 0.10 0.00 82 1006.5
20260505091550 59 330 4.0 11.0 0.00 0.10 0.00 82 1006.3
20260505090048 60 356 4.0 9.0 0.00 0.10 0.00 82 1006.3
20260505084551 61 327 3.0 5.0 0.00 0.10 0.00 78 1005.6
20260505083050 61 33 0.0 0.0 0.00 0.10 0.00 75 1005.2
20260505081546 62 89 0.0 2.0 0.00 0.10 0.00 72 1004.8
20260505080036 63 139 0.0 2.0 0.00 0.10 0.00 68 1005.0
20260505074533 64 65 1.0 3.0 0.00 0.10 0.00 66 1005.2
20260505073033 64 22 2.0 7.0 0.00 0.10 0.00 64 1005.5
20260505071529 65 319 0.0 4.0 0.00 0.10 0.00 63 1005.9
20260505070033 66 321 2.0 10.0 0.00 0.10 0.00 61 1005.6
20260505064521 68 350 4.0 17.0 0.00 0.10 0.00 60 1005.8
20260505063017 69 227 4.0 14.0 0.00 0.10 0.00 62 1004.5
20260505061519 69 215 6.0 11.0 0.00 0.10 0.00 61 1004.3
20260505060011 69 233 3.0 14.0 0.00 0.10 0.00 60 1004.2
20260505054509 70 201 4.0 10.0 0.00 0.10 0.00 59 1004.1
20260505053006 70 229 4.0 11.0 0.00 0.10 0.00 59 1004.0
20260505051503 70 218 8.0 18.0 0.00 0.10 0.00 59 1003.7
20260505050109 70 182 5.0 15.0 0.00 0.10 0.00 59 1003.4
20260505041558 71 212 6.0 18.0 0.00 0.10 0.10 57 1003.1
20260505040059 71 235 6.0 14.0 0.00 0.10 0.10 58 1003.2
20260505034616 71 234 6.0 11.0 0.00 0.10 0.10 57 1003.7
20260505033058 71 202 3.0 12.0 0.00 0.10 0.10 57 1003.8
20260505031556 72 226 4.0 9.0 0.00 0.10 0.10 56 1003.8
20260505030055 73 174 4.0 8.0 0.00 0.10 0.10 56 1003.7
20260505024555 73 248 3.0 9.0 0.00 0.10 0.10 56 1003.4
20260505023058 73 266 2.0 6.0 0.00 0.10 0.10 56 1003.4
20260505021554 72 242 2.0 8.0 0.00 0.10 0.10 56 1003.0
20260505020057 72 160 2.0 7.0 0.00 0.10 0.10 57 1002.6
20260505014553 72 198 1.0 4.0 0.00 0.10 0.10 58 1002.3
20260505013053 72 262 0.0 4.0 0.00 0.10 0.10 57 1002.2
20260505011608 72 209 2.0 5.0 0.00 0.10 0.10 58 1002.0
20260505010051 73 177 1.0 3.0 0.00 0.10 0.10 56 1002.1
20260505004555 74 231 1.0 4.0 0.00 0.10 0.10 53 1001.9
20260505003053 76 219 0.0 6.0 0.00 0.10 0.10 51 1001.8
20260505001603 77 253 2.0 4.0 0.00 0.10 0.10 48 1001.8
20260505000104 78 207 3.0 9.0 0.00 0.10 0.10 47 1001.8
20260504234545 78 221 2.0 8.0 0.00 0.10 0.10 49 1001.8
20260504233102 80 242 2.0 7.0 0.00 0.10 0.10 48 1001.9
20260504231542 79 209 3.0 7.0 0.00 0.10 0.10 49 1001.9